Regional Weather Roundup
Issued by NWS Albany, NY

Home | Current Version | Previous Version | Text Only | Print | Product List | Glossary On
Versions: 1 2 3 4 5 6 7 8 9 10 11 12 13 14 15 16 17 18 19 20 21 22 23 24 25 26 27 28 29 30 31 32 33 34 35 36 37 38 39 40 41 42 43 44 45 46 47 48 49 50
000
ASUS41 KALY 220610
RWRALY

NEW YORK STATE HOURLY WEATHER ROUNDUP
NATIONAL WEATHER SERVICE ALBANY NY
200 AM EDT FRI SEP 22 2017

NOTE: "FAIR" INDICATES FEW OR NO CLOUDS BELOW 12,000 FEET WITH NO
SIGNIFICANT WEATHER AND/OR NO OBSTRUCTIONS TO VISIBILITY.

NYZ032-033-038>043-046>054-057>066-NYZ062>081-082-084-220700-
EAST


CITY           SKY/WX    TMP DP  RH WIND       PRES   REMARKS
ALBANY         CLOUDY    62  56  80 CALM      30.10R
GLENS FALLS    PTCLDY    54  53  97 CALM      30.10F
POUGHKEEPSIE   CLOUDY    62  59  90 N3        30.05R
MONTGOMERY     CLOUDY    64  59  83 CALM      30.05S
WHITE PLAINS   CLOUDY    67  48  50 N8        30.02S
ISLIP          MOCLDY    69  50  50 N15       29.96F
NEW YORK CITY  CLOUDY    71  52  50 N13       30.01R
CENTRAL PARK   CLOUDY    72  51  47 NE9G17    30.05R
$$

NYZ005>009-017-018-044>046-055-056-220700-
CENTRAL


CITY           SKY/WX    TMP DP  RH WIND       PRES   REMARKS
FULTON         FOG       57  57 100 CALM      30.11S VSB 1/4
SYRACUSE       MOCLDY    60  59  96 CALM      30.09F
ROME           CLOUDY    58  56  93 CALM      30.12R
ELMIRA         CLOUDY    58  58 100 SW3       30.12S
BINGHAMTON     CLOUDY    61  60  97 N5        30.12F
MONTICELLO     MOCLDY    61  55  81 NW5       30.11S
$$

NYZ026>034-041>043-087-220700-
NORTH


CITY           SKY/WX    TMP DP  RH WIND       PRES   REMARKS
WATERTOWN      MOCLDY    53  53 100 CALM      30.11S
FORT DRUM      NOT AVBL
OGDENSBURG     FAIR      54  52  95 CALM      30.13S
MASSENA        CLOUDY    53  53 100 CALM      30.15S
SARANAC LAKE   CLOUDY    44  44 100 CALM      30.15F
PLATTSBURGH    PTCLDY    56  52  86 CALM      30.13S
$$

NYZ001>004-010>016-019>021-085-220700-
WEST


CITY           SKY/WX    TMP DP  RH WIND       PRES   REMARKS
NIAGARA FALLS  CLEAR     64  58  80 E3        30.11F
BUFFALO        CLOUDY    64  59  83 E5        30.12F
DUNKIRK        CLEAR     60  58  92 E5        30.11F
JAMESTOWN      CLEAR     64  61  90 E6        30.16
WELLSVILLE     FOG       59  57  93 N5        30.19S VSB 1/4
ROCHESTER      CLOUDY    60  59  96 SW3       30.13F
PENN YAN       CLOUDY    60  57  89 W3        30.14R
$$

             KEY
       WCI = WIND CHILL INDEX
       VSB = VISIBILITY
       HX  = HEAT INDEX
$$



USA.gov is the U.S. government's official web portal to all federal, state and local government web resources and services.